GW5309 Weather Reports


time (UTC)temp
C
wind
direction
speed
KPH
gust
KPH
rain 1hr
cm
rain 24hr
cm
rain mn
cm
humidity
%
barometer
mb
20260509212738 31 76 3.2 19.3 0.00 0.00 0.00 68 977.5
20260509212236 31 83 3.2 19.3 0.00 0.00 0.00 69 978.7
20260509211736 31 114 0.0 19.3 0.00 0.00 0.00 70 979.1
20260509210203 30 37 1.6 19.3 0.00 0.00 0.00 69 979.0
20260509205146 30 36 4.8 19.3 0.00 0.00 0.00 68 978.5
20260509204129 31 41 6.4 19.3 0.00 0.00 0.00 69 975.7
20260509203628 31 66 0.0 19.3 0.00 0.00 0.00 69 975.4
20260509202611 31 45 3.2 19.3 0.00 0.00 0.00 68 975.0
20260509201038 31 334 1.6 19.3 0.00 0.00 0.00 70 977.0
20260509200537 31 255 1.6 19.3 0.00 0.00 0.00 69 977.6
20260509200036 31 114 3.2 19.3 0.00 0.00 0.00 69 978.0
20260509195535 30 59 1.6 19.3 0.00 0.00 0.00 70 978.4
20260509195034 30 81 1.6 19.3 0.00 0.00 0.00 71 978.1
20260509192945 30 30 1.6 19.3 0.00 0.00 0.00 73 979.8
20260509191928 30 352 1.6 19.3 0.00 0.00 0.00 71 980.6
20260509190911 29 30 1.6 19.3 0.00 0.00 0.00 72 981.2
20260509190410 30 35 6.4 19.3 0.00 0.00 0.00 72 980.8
20260509185909 30 35 1.6 19.3 0.00 0.00 0.00 71 980.1
20260509185408 30 24 3.2 19.3 0.00 0.00 0.00 71 980.7
20260509184351 30 284 0.0 19.3 0.00 0.00 0.00 71 981.9
20260509183334 30 231 3.2 19.3 0.00 0.00 0.00 71 983.8
20260509182317 29 206 4.8 19.3 0.00 0.00 0.00 73 984.8
20260509181816 30 193 4.8 19.3 0.00 0.00 0.00 70 982.7
20260509181315 30 197 3.2 19.3 0.00 0.00 0.00 72 981.9
20260509180814 30 192 1.6 19.3 0.00 0.00 0.00 73 982.0
20260509180313 30 158 4.8 19.3 0.00 0.00 0.00 72 982.0
20260509175812 29 233 0.0 19.3 0.00 0.00 0.00 74 983.5
20260509175311 29 157 4.8 19.3 0.00 0.00 0.00 75 983.5
20260509174810 29 161 1.6 19.3 0.00 0.00 0.00 75 983.4
20260509174309 28 249 1.6 19.3 0.00 0.00 0.00 76 985.1
20260509173808 28 215 1.6 19.3 0.00 0.00 0.00 76 985.0
20260509173307 28 269 3.2 19.3 0.00 0.00 0.00 76 985.5
20260509172250 28 192 3.2 19.3 0.00 0.00 0.00 77 987.6
20260509171749 28 175 1.6 19.3 0.00 0.00 0.00 78 987.7
20260509171248 28 182 3.2 19.3 0.00 0.00 0.00 78 987.4
20260509170747 28 228 3.2 19.3 0.00 0.00 0.00 78 987.4
20260509170246 28 197 3.2 19.3 0.00 0.00 0.00 79 987.5
20260509165745 28 195 6.4 19.3 0.00 0.00 0.00 78 986.7
20260509165244 28 150 3.2 19.3 0.00 0.00 0.00 79 986.8
20260509164228 28 220 3.2 19.3 0.00 0.00 0.00 79 987.2
20260509163726 28 220 4.8 19.3 0.00 0.00 0.00 79 987.8
20260509162710 27 228 4.8 19.3 0.00 0.00 0.00 82 990.5
20260509162208 27 142 8.0 19.3 0.00 0.00 0.00 83 990.2
20260509161707 27 159 6.4 19.3 0.00 0.00 0.00 84 990.4
20260509161206 27 184 8.0 19.3 0.00 0.00 0.00 84 990.3
20260509160705 27 179 8.0 17.7 0.00 0.00 0.00 84 989.9
20260509160204 26 175 4.8 17.7 0.00 0.00 0.00 85 989.7
20260509155704 26 166 4.8 17.7 0.00 0.00 0.00 87 989.7
20260509154647 26 216 6.4 17.7 0.00 0.00 0.00 87 990.3
20260509154146 26 210 3.2 17.7 0.00 0.00 0.00 90 989.0
20260509153129 25 180 6.4 17.7 0.00 0.00 0.00 94 987.9
20260509152628 25 201 1.6 17.7 0.00 0.00 0.00 96 988.0
20260509152127 25 201 1.6 17.7 0.00 0.00 0.00 97 988.2
20260509151626 25 234 0.0 17.7 0.00 0.00 0.00 98 989.3
20260509151125 24 179 3.2 17.7 0.00 0.00 0.00 98 988.9
20260509150624 24 158 1.6 17.7 0.00 0.00 0.00 100 988.0
20260509150123 24 158 0.0 17.7 0.00 0.00 0.00 99 988.6
20260509145622 24 158 1.6 17.7 0.00 0.00 0.00 100 988.7
20260509145121 24 158 0.0 17.7 0.00 0.00 0.00 100 989.2
20260509144620 23 159 1.6 17.7 0.00 0.00 0.00 100 989.6
20260509144119 23 158 1.6 17.7 0.00 0.00 0.00 100 990.8
20260509143618 23 158 1.6 17.7 0.00 0.00 0.00 100 991.0
20260509143117 23 157 0.0 17.7 0.00 0.00 0.00 100 991.6
20260509142616 23 157 3.2 17.7 0.00 0.00 0.00 100 991.6
20260509142115 23 159 0.0 17.7 0.00 0.00 0.00 100 992.1
20260509141614 23 159 0.0 17.7 0.00 0.00 0.00 100 992.1
20260509141113 23 159 0.0 17.7 0.00 0.00 0.00 100 992.4
20260509135540 23 158 1.6 17.7 0.00 0.00 0.00 100 991.9
20260509135039 23 158 1.6 17.7 0.00 0.00 0.00 100 991.0
20260509134538 23 158 0.0 17.7 0.00 0.00 0.00 100 990.8
20260509134037 23 158 0.0 17.7 0.00 0.00 0.00 100 991.0
20260509133536 23 158 0.0 17.7 0.00 0.00 0.00 100 990.8
20260509133035 23 158 0.0 17.7 0.00 0.00 0.00 100 992.0
20260509132534 23 158 0.0 17.7 0.00 0.00 0.00 100 992.1
20260509132033 23 158 0.0 17.7 0.00 0.00 0.00 100 992.8
20260509131532 23 158 0.0 17.7 0.00 0.00 0.00 100 993.0
20260509131031 23 158 0.0 17.7 0.00 0.00 0.00 100 992.8
20260509130530 23 158 0.0 17.7 0.00 0.00 0.00 100 991.9
20260509130029 23 158 0.0 17.7 0.00 0.00 0.00 100 992.3
20260509123940 23 159 0.0 17.7 0.00 0.00 0.00 100 995.0
20260509123439 23 159 0.0 17.7 0.00 0.00 0.00 100 995.1
20260509122938 23 159 3.2 17.7 0.00 0.00 0.00 100 994.9
20260509121921 23 159 1.6 17.7 0.00 0.00 0.00 100 994.3
20260509121421 23 318 3.2 17.7 0.00 0.00 0.00 100 994.1
20260509120403 23 321 0.0 17.7 0.00 0.00 0.00 100 993.2
20260509115902 23 321 0.0 17.7 0.00 0.00 0.00 100 993.2
20260509115402 23 321 1.6 17.7 0.00 0.00 0.00 100 993.1
20260509114900 23 128 1.6 17.7 0.00 0.00 0.00 100 992.9
20260509113843 23 128 1.6 17.7 0.00 0.00 0.00 100 992.9
20260509113342 23 128 0.0 17.7 0.00 0.00 0.00 100 992.1
20260509112841 23 128 0.0 17.7 0.00 0.00 0.00 99 992.6
20260509112340 23 128 0.0 17.7 0.00 0.00 0.00 99 992.3
20260509111839 23 128 0.0 17.7 0.00 0.00 0.00 99 993.0
20260509111338 23 128 0.0 17.7 0.00 0.00 0.00 99 993.6
20260509110837 23 129 0.0 17.7 0.00 0.00 0.00 99 993.5
20260509110336 23 129 0.0 17.7 0.00 0.00 0.00 99 994.1
20260509105836 23 129 1.6 17.7 0.00 0.00 0.00 99 993.8
20260509105334 23 129 1.6 17.7 0.00 0.00 0.00 99 994.1
20260509104318 23 129 0.0 17.7 0.00 0.00 0.00 99 994.1
20260509103817 23 129 0.0 17.7 0.00 0.00 0.00 99 993.7
20260509103316 23 128 0.0 17.7 0.00 0.00 0.00 99 993.6
20260509102815 23 128 0.0 17.7 0.00 0.00 0.00 99 993.7
20260509102314 23 128 1.6 17.7 0.00 0.00 0.00 99 993.5
20260509101812 23 128 0.0 17.7 0.00 0.00 0.00 99 993.1
20260509100239 23 128 1.6 17.7 0.00 0.00 0.00 99 994.1
20260509095738 23 128 0.0 17.7 0.00 0.00 0.00 99 994.1
20260509095238 22 128 1.6 17.7 0.00 0.00 0.00 99 993.5
20260509094737 23 128 0.0 17.7 0.00 0.00 0.00 99 994.1
20260509094236 23 128 0.0 17.7 0.00 0.00 0.00 99 994.3
20260509093735 22 129 1.6 17.7 0.00 0.00 0.00 99 994.3
20260509093234 22 128 1.6 17.7 0.00 0.00 0.00 99 994.1
20260509091701 22 128 1.6 17.7 0.00 0.00 0.00 99 994.0
20260509091200 22 128 1.6 17.7 0.00 0.00 0.00 99 993.7
20260509090659 22 128 0.0 17.7 0.00 0.00 0.00 99 994.5
20260509085652 23 128 1.6 17.7 0.00 0.00 0.00 99 993.6
20260509085151 23 128 0.0 17.7 0.00 0.00 0.00 99 993.3
20260509084650 23 128 1.6 17.7 0.00 0.00 0.00 99 992.4
20260509084149 23 128 0.0 17.7 0.00 0.00 0.00 99 992.5
20260509083648 23 128 0.0 17.7 0.00 0.00 0.00 99 992.8
20260509082631 23 128 0.0 17.7 0.00 0.00 0.00 99 994.3
20260509082130 23 128 0.0 17.7 0.00 0.00 0.00 99 994.6
20260509081629 23 128 0.0 17.7 0.00 0.00 0.00 99 995.2
20260509081128 23 128 0.0 17.7 0.00 0.00 0.00 99 995.9
20260509080627 23 128 0.0 17.7 0.00 0.00 0.00 99 995.8
20260509080126 23 128 3.2 17.7 0.00 0.00 0.00 98 995.7
20260509075625 23 128 1.6 17.7 0.00 0.00 0.00 98 995.8
20260509074608 22 128 1.6 17.7 0.00 0.00 0.00 98 995.7
20260509074107 22 128 1.6 17.7 0.00 0.00 0.00 98 995.6
20260509072534 22 129 0.0 17.7 0.00 0.00 0.00 98 996.6
20260509072033 22 129 1.6 17.7 0.00 0.00 0.00 98 997.1
20260509071532 22 129 1.6 17.7 0.00 0.00 0.00 98 997.2
20260509071031 22 129 3.2 17.7 0.00 0.00 0.00 98 997.4
20260509070530 22 129 3.2 17.7 0.00 0.00 0.00 98 996.8
20260509070029 22 129 6.4 17.7 0.00 0.00 0.00 98 996.6
20260509065528 22 129 6.4 17.7 0.00 0.00 0.00 98 996.6
20260509064511 22 129 1.6 17.7 0.00 0.00 0.00 97 997.1
20260509064010 22 130 3.2 17.7 0.00 0.00 0.00 97 997.4
20260509062953 22 130 4.8 17.7 0.00 0.00 0.00 97 996.7
20260509062452 22 130 4.8 17.7 0.00 0.00 0.00 97 996.4
20260509061951 22 130 8.0 17.7 0.00 0.00 0.00 97 996.5
20260509061450 22 130 11.3 17.7 0.00 0.00 0.00 97 996.4
20260509060949 22 130 9.7 17.7 0.00 0.00 0.00 96 996.7
20260509060448 22 130 9.7 17.7 0.00 0.00 0.00 96 996.2
20260509055947 22 130 9.7 17.7 0.00 0.00 0.00 96 996.2
20260509055446 22 130 8.0 17.7 0.00 0.00 0.00 96 996.5
20260509054945 22 130 9.7 17.7 0.00 0.00 0.00 96 996.5
20260509054444 22 130 8.0 17.7 0.00 0.00 0.00 95 996.7
20260509053943 22 130 9.7 17.7 0.00 0.00 0.00 95 997.4
20260509053442 22 130 9.7 17.7 0.00 0.00 0.00 95 996.8
20260509052425 22 130 9.7 17.7 0.00 0.00 0.00 95 996.4
20260509050852 22 130 8.0 17.7 0.00 0.00 0.00 95 996.5
20260509050351 22 130 8.0 17.7 0.00 0.00 0.00 95 996.0
20260509045850 22 130 9.7 17.7 0.00 0.00 0.08 95 996.6
20260509045349 22 130 9.7 17.7 0.00 0.00 0.08 95 996.1
20260509044849 22 130 8.0 17.7 0.00 0.00 0.08 95 996.3
20260509044348 22 130 8.0 17.7 0.00 0.00 0.08 95 996.0
20260509043847 22 130 8.0 17.7 0.00 0.00 0.08 94 995.5
20260509043346 23 130 8.0 17.7 0.00 0.00 0.08 94 995.1
20260509042845 23 130 6.4 17.7 0.00 0.00 0.08 94 995.3
20260509042344 23 130 4.8 17.7 0.00 0.00 0.08 94 996.0
20260509041843 23 130 3.2 17.7 0.00 0.00 0.08 94 995.8
20260509041341 23 130 8.0 17.7 0.00 0.00 0.08 94 995.5
20260509040840 23 130 6.4 17.7 0.00 0.00 0.08 94 995.8
20260509040339 23 130 6.4 17.7 0.00 0.00 0.08 94 995.3
20260509035322 23 130 3.2 17.7 0.00 0.00 0.08 94 994.7
20260509034306 23 130 1.6 17.7 0.00 0.00 0.08 94 994.8
20260509033805 23 130 0.0 17.7 0.00 0.00 0.08 94 995.1
20260509033304 23 130 1.6 17.7 0.00 0.00 0.08 94 995.3
20260509032803 23 130 3.2 17.7 0.00 0.00 0.08 94 995.0
20260509032306 23 130 6.4 17.7 0.00 0.00 0.08 94 995.2
20260509031801 23 130 1.6 17.7 0.00 0.00 0.08 94 995.4
20260509031300 23 130 3.2 17.7 0.00 0.00 0.08 94 995.4
20260509030243 23 130 8.0 17.7 0.00 0.00 0.08 93 995.4
20260509025742 23 130 11.3 17.7 0.00 0.00 0.08 93 994.8
20260509025238 23 130 3.2 17.7 0.00 0.00 0.08 93 994.8
20260509024737 23 130 0.0 17.7 0.00 0.00 0.08 93 995.2
20260509024236 23 131 1.6 17.7 0.00 0.00 0.08 93 994.9
20260509023735 23 131 6.4 17.7 0.00 0.00 0.08 93 994.6
20260509023234 23 134 3.2 17.7 0.00 0.00 0.08 92 994.5
20260509022733 23 134 4.8 17.7 0.00 0.00 0.08 92 994.2
20260509022232 23 134 3.2 17.7 0.00 0.00 0.08 92 993.9
20260509021731 23 134 3.2 17.7 0.00 0.00 0.08 92 993.5
20260509021230 23 133 3.2 17.7 0.00 0.00 0.08 91 993.8
20260509020729 23 133 4.8 17.7 0.00 0.00 0.08 91 993.4
20260509015712 23 134 1.6 17.7 0.00 0.00 0.08 91 993.4
20260509014655 23 133 3.2 17.7 0.00 0.00 0.08 91 994.4
20260509014154 23 133 4.8 17.7 0.00 0.00 0.08 91 994.2
20260509012621 24 132 4.8 17.7 0.00 0.00 0.08 90 993.3
20260509011604 24 126 1.6 17.7 0.00 0.00 0.08 89 992.7
20260509011103 24 125 0.0 17.7 0.00 0.00 0.08 89 993.1
20260509010602 24 125 1.6 17.7 0.00 0.00 0.08 88 993.3
20260509010101 24 126 3.2 17.7 0.00 0.00 0.08 88 993.1
20260509005600 25 124 3.2 17.7 0.00 0.00 0.08 88 992.9
20260509005059 25 120 3.2 17.7 0.00 0.00 0.08 88 992.7
20260509004558 25 121 4.8 17.7 0.00 0.00 0.08 87 992.7
20260509004057 25 125 3.2 17.7 0.00 0.00 0.08 87 991.9
20260509003556 25 124 6.4 17.7 0.00 0.00 0.08 86 991.3
20260509003055 25 125 3.2 17.7 0.00 0.00 0.08 86 990.6
20260509002554 25 125 3.2 17.7 0.00 0.00 0.08 86 989.7
20260509000505 25 124 1.6 17.7 0.00 0.00 0.08 84 989.6
20260509000004 25 125 1.6 17.7 0.00 0.00 0.08 84 989.8
20260508235503 25 119 3.2 17.7 0.00 0.00 0.08 84 989.7
20260508233930 25 120 4.8 17.7 0.00 0.00 0.08 84 989.2
20260508233429 25 108 1.6 17.7 0.00 0.00 0.08 83 988.6
20260508232928 26 58 1.6 17.7 0.00 0.00 0.08 83 988.5
20260508232427 26 107 1.6 17.7 0.00 0.00 0.08 83 988.3
20260508231410 26 77 1.6 17.7 0.00 0.00 0.08 83 987.8
20260508230909 26 67 0.0 17.7 0.00 0.00 0.08 83 987.8
20260508225852 26 66 4.8 17.7 0.00 0.00 0.08 82 986.9
20260508225351 26 131 3.2 17.7 0.00 0.00 0.08 81 986.8
20260508224850 26 109 3.2 17.7 0.00 0.00 0.08 81 985.8
20260508224349 26 72 1.6 17.7 0.00 0.00 0.08 81 986.0
20260508223849 26 112 4.8 17.7 0.00 0.00 0.08 81 986.5
20260508223347 26 118 3.2 17.7 0.00 0.00 0.08 82 986.5
20260508222846 26 62 1.6 17.7 0.00 0.00 0.08 83 986.4
20260508222345 26 62 1.6 17.7 0.00 0.00 0.08 83 986.8
20260508221845 26 126 1.6 17.7 0.00 0.00 0.08 83 986.7
20260508221343 25 126 1.6 17.7 0.00 0.00 0.08 83 987.7
20260508220327 25 57 0.0 17.7 0.00 0.00 0.08 84 987.2
20260508215826 25 0 1.6 17.7 0.00 0.00 0.08 85 987.2
20260508214809 25 68 1.6 17.7 0.00 0.00 0.08 84 986.9
20260508213751 25 67 0.0 17.7 0.00 0.00 0.08 85 989.1
20260508213250 25 67 1.6 17.7 0.00 0.00 0.08 85 989.4